Other Surface Observations
Issued by NWS Tucson, AZ

Home | Current Version | Previous Version | Text Only | Print | Product List | Glossary On
Versions: 1 2 3 4 5 6 7 8 9 10 11 12 13 14 15 16 17 18 19 20 21 22 23 24 25 26 27 28 29 30 31 32 33 34 35 36 37 38 39 40 41 42 43 44 45 46 47 48 49 50
000
SXUS55 KTWC 230915
OSOTWC

WEATHER ROUNDUP FOR SOUTHEAST ARIZONA
NATIONAL WEATHER SERVICE TUCSON AZ
215 AM MST THU FEB 23 2017

AZZ504>506-514-231015-
LOCATION       SKY/WX    TMP DP  RH WIND       PRES   REMARKS
TUCSON         CLEAR     60  40  47 CALM      29.86S
DAVIS-MONTHAN  CLEAR     59  41  51 NW6       29.85S
CHILDRENS PARK N/A      N/A N/A  52 SE2               PIMA CO DEQ
ALVERNON/22ND  N/A      N/A N/A N/A N/A               PIMA CO DEQ
CHERRY/GLENN   N/A      N/A N/A N/A N/A               PIMA CO DEQ
TANGERINE      N/A       62 N/A N/A W5                PIMA CO DEQ
CONTL RANCH    N/A       63  39  41 SW5               PIMA CO DEQ
GRANT/1ST      N/A       63  42  47 S2                PIMA CO DEQ
CRAYCROFT/22ND N/A       63  42  47 N/A               PIMA CO DEQ
GOLFLINKS/KOLB N/A       63  41  45 SW5               PIMA CO DEQ
AJO/12TH       N/A       63  42  46 S7                PIMA CO DEQ
FAIRGROUNDS    N/A       62 N/A N/A SW11              PIMA CO DEQ
SAGUARO        N/A       62  41  46 W5G10             *SABINO CYN
SAN CARLOS     N/A       58  42  55 S5                *SAN CARLOS
GREEN VALLEY   N/A       59  40  50 S9                PIMA CO DEQ
HORSE CAMP CYN N/A       57  38  49 SW12G19           *ARAVAIPA CYN
RINCON MTNS    N/A       38  35  90 SW4G15            *NR MANNING CAMP
$$

AZZ509>511-231015-
LOCATION       SKY/WX    TMP DP  RH WIND       PRES   REMARKS
SAFFORD        CLEAR     51  41  68 NE5       29.77F
STRAY HORSE    N/A       40  33  77 N/A               *
TRAIL CABIN    N/A       49  32  51 SW5G12            *N OF GRANVILLE
BLACK HILLS    NOT AVBL
DRY LAKE       N/A       42  31  65 SW8G20            *NATANES MTNS
NOON CREEK     N/A       58  33  39 NE8G25            *PINALENO MTNS
COLUMBINE      N/A       34  32  91 SW6G17            *PINALENO MTNS
GUTHRIE        N/A       49  37  64 SW13G17           *SW OF GUTHRIE
$$

AZZ502-503-513-231015-
LOCATION       SKY/WX    TMP DP  RH WIND       PRES   REMARKS
NOGALES        CLEAR     54  42  64 SE3       29.90F
SELLS          N/A       58  43  57 N3                *
SASABE         N/A       53  44  72 SW7G11            *ALTAR VLY
HOPKINS        N/A       43  37  80 W9G17             *SANTA RITA MTNS
CARR CYN       N/A       56  35  45 S3G12             *W OF HEREFORD
$$

AZZ507-508-512-231015-
LOCATION       SKY/WX    TMP DP  RH WIND       PRES   REMARKS
SIERRA VISTA   PTCLDY    58  36  43 SW21      29.90F
DOUGLAS        MOCLDY    54  36  50 VRB3      29.88F
EMPIRE MTNS    NOT AVBL
MULESHOE RANCH N/A       55  38  52 SW3G12            *PRESERVE
HEADQUARTERS   N/A       56  37  48 W3                *CHIRICAHUA MTNS
$$

.............................NOTES.............................
THIS IS AN AUTOMATED COLLECTIVE WITH MINIMAL QUALITY CONTROL.
PIMA CO DEQ SITES HAVE NONSTANDARD WIND SENSOR HEIGHTS.
PIMA CO DEQ SITES DO NOT REPORT WIND GUSTS.
* INDICATES WIND SENSORS LOCATED AT 20 FEET INSTEAD OF 33 FEET.
..............................KEY..............................
SKY/WX - SKY CONDITION/WEATHER
TMP    - TEMPERATURE IN FAHRENHEIT
DP     - DEWPOINT IN FAHRENHEIT
RH     - RELATIVE HUMIDITY IN PERCENT
WIND   - DIRECTION AND SPEED IN MILES PER HOUR (MPH)
VRB    - VARIABLE WIND DIRECTION
PRES   - MEAN SEA LEVEL PRESSURE IN INCHES OF MERCURY
         F - FALLING PRESSURE   R - RISING PRESSURE
         S - STEADY PRESSURE
VSB    - VISIBILITY IN MILES
HX     - HEAT INDEX IN FAHRENHEIT
WCI    - WIND CHILL INDEX IN FAHRENHEIT
N/A    - NOT AVAILABLE
AFB    - AIR FORCE BASE
         DAVIS-MONTHAN IS DAVIS-MONTHAN AIR FORCE BASE
CYN    - CANYON
MTNS   - MOUNTAINS
NCA    - NATIONAL CONSERVATION AREA
NR     - NEAR
VLY    - VALLEY
CONTL  - CONTINENTAL
PIMA CO DEQ - PIMA COUNTY DEPT OF ENVIRONMENTAL QUALITY



USA.gov is the U.S. government's official web portal to all federal, state and local government web resources and services.